712  
ASUS43 KDTX 280210  
RWRMI  
MICHIGAN HOURLY REGIONAL WEATHER ROUNDUP  
NATIONAL WEATHER SERVICE DETROIT/PONTIAC MI  
1000 PM EDT TUE OCT 27 2020  
 
NOTE: "FAIR" INDICATES FEW OR NO CLOUDS BELOW 12,000 FEET WITH NO  
SIGNIFICANT WEATHER AND/OR TO VISIBILITY
.  
 
MIZ047>049-052>055-059>063-066>070-074>076-081>083-280300-  
SOUTHEAST LOWER MICHIGAN  
 
CITY SKY/WX TMP DP RH WIND PRES REMARKS
 
ADRIAN LGT RAIN 39 38 96 SW6 30.15F WCI 35  
ALMA PTCLDY 35 32 88 SW3 30.13F  
ANN ARBOR CLOUDY 38 36 92 CALM 30.15S  
BAD AXE CLOUDY 37 36 96 SW6 30.12S WCI 32  
CARO CLOUDY 36 34 93 SW5 30.13S WCI 32  
DETROIT CITY CLOUDY 40 37 89 N3 30.16S  
DETROIT CLOUDY 39 36 89 SW5 30.16S  
FLINT CLOUDY 38 34 85 SW6 30.15S WCI 33  
GROSSE ILE MIX PCPN 40 40 98 W5 30.16R  
HILLSDALE LGT RAIN 38 38 99 CALM 30.13F  
HOWELL CLOUDY 37 37 100 S5 30.13F WCI 33  
 
CITY SKY/WX TMP DP RH WIND PRES REMARKS
 
JACKSON MOCLDY 38 36 92 CALM 30.13F  
LAMBERTVILLE RAIN 40 39 97 CALM 30.15F  
LANSING LGT RAIN 37 35 92 S8 30.14F WCI 31  
LAPEER CLOUDY 38 37 99 SW6 30.15S WCI 33  
MASON CLOUDY 37 36 96 S3 30.13F  
MONROE CLOUDY 39 37 93 CALM 30.14F  
PONTIAC CLOUDY 36 34 92 S6 30.13F WCI 31  
PORT HOPE N/A 37 32 82 S5 30.10F WCI 33  
PORT HURON CLOUDY 36 34 93 CALM 30.16S  
TRI CITIES PTCLDY 37 30 75 SW7 30.13S WCI 32  
MIDLAND FAIR 33 32 96 S3 30.12F  
TROY PTCLDY 39 38 94 CALM 30.16F  
SAGINAW HB MOCLDY 36 36 100 S6 30.13S WCI 31  

 
MIZ043>046-050>051-056>058-064>065-071>073-077>080-280300-  
SOUTHWEST LOWER MICHIGAN  
 
CITY SKY/WX TMP DP RH WIND PRES REMARKS
 
BATTLE CREEK CLOUDY 39 37 92 S6 30.14F WCI 35  
BENTON HARBOR CLOUDY 40 37 89 S5 30.14F  
BIG RAPIDS CLEAR 30 29 96 CALM 30.09F  
COLDWATER CLOUDY 38 37 94 CALM 30.14F  
FREMONT FOG 31 30 98 S3 30.10F VSB 1/2  
HOLLAND MOCLDY 37 34 89 S6 30.13F WCI 32  
GRAND RAPIDS CLOUDY 37 36 96 S7 30.13S WCI 32  
IONIA CLOUDY 37 34 90 S6 30.12F WCI 32  
KALAMAZOO CLOUDY 39 35 86 SW5 30.14F  
LUDINGTON PTCLDY 38 26 62 W9 30.08F WCI 32  
MARSHALL MOCLDY 37 36 96 SW3 30.14S  
MOUNT PLEASANT CLEAR 34 32 94 CALM 30.10F  
MUSKEGON PTCLDY 31 26 82 E5 30.12F WCI 26  
SOUTH HAVEN CLOUDY 38 37 97 S3 30.14S  

 
MIZ016>042-280300-  
NORTHERN LOWER MICHIGAN  
 
CITY SKY/WX TMP DP RH WIND PRES REMARKS
 
ALPENA MOCLDY 36 27 69 S7 30.06F WCI 30  
BEAVER ISLAND CLOUDY 40 28 61 SW17G28 30.00F WCI 31  
BELLAIRE PTCLDY 35 27 70 S8 30.07F WCI 29  
CADILLAC PTCLDY 30 24 79 S7 30.05F WCI 23  
CHARLEVOIX MOCLDY 37 29 72 S8G17 30.04F WCI 30  
FRANKFORT PTCLDY 40 26 57 SW8G18 30.06F WCI 34  
GAYLORD PTCLDY 32 23 69 SW14 30.04S WCI 22  
HARBOR SPRINGS MOCLDY 36 29 75 SW13G21 30.03F WCI 27  
HOUGHTON LAKE CLEAR 33 27 78 SW10G20 30.08S WCI 25  
MANISTEE MOCLDY 31 27 85 SE3 30.07F  
OSCODA CLEAR 34 32 92 SW10 30.09F WCI 26  
PELLSTON MOCLDY 36 26 67 S9 30.03F WCI 29  
ROGERS CITY MOCLDY 33 30 90 W3 30.07R  
TRAVERSE CITY MOCLDY 34 25 69 S7 30.06F WCI 28  

 
MIZ007>008-015-280300-  
EASTERN UPPER MICHIGAN  
 
CITY SKY/WX TMP DP RH WIND PRES REMARKS
 
KINROSS CLOUDY 34 28 79 S5 29.99F WCI 30  
MACKINAC ISLAN CLOUDY 36 27 69 SW12G21 30.01F WCI 28  
NEWBERRY CLOUDY 33 26 76 S9 29.96F WCI 26  
S. S. MARIE MOCLDY 32 26 78 S3 29.98F  
MUNISING N/A 33 19 56 S10G22 29.93F WCI 25  

 
MIZ004>006-011>014-085-280300-  
CENTRAL UPPER MICHIGAN  
 
CITY SKY/WX TMP DP RH WIND PRES REMARKS
 
MANISTIQUE CLOUDY 37 22 55 SW8G16 29.97F WCI 31  
ESCANABA CLOUDY 34 17 50 SW12G18 29.99F WCI 25  
MENOMINEE CLOUDY 34 17 50 SW8 30.03F WCI 27  
SAWYER-GWINN CLEAR 30 18 59 SW14 29.91F WCI 20  

 
MIZ001>003-009>011-084-280300-  
WESTERN UPPER MICHIGAN  
 
CITY SKY/WX TMP DP RH WIND PRES REMARKS
 
IRON MOUNTAIN MOCLDY 32 16 51 SW8 29.95F WCI 25  
HOUGHTON CLOUDY 33 13 43 SW9G18 29.84F WCI 25  
COPPER HARBOR N/A 34 17 50 VRB7 29.85F WCI 28  
IRONWOOD CLOUDY 29 15 56 S13G25 29.85F WCI 19  

 
 
ABBREVIATIONS USED IN REMARKS  
TC - TEMPERATURE IN CELSIUS  
WCI - WIND CHILL INDEX  
HX - HEAT INDEX  
VSB - VISIBILITY  
 
 
 
CLICK HERE TO GO TO PREVIOUS BULLETINS.

The Nexlab MI Page Main Text Page